#timestamp,LO_Frequency,Hit,StdDev 
1570032015.4,286046995.5,N
1570032035.2,286046995.1,N
1570032055.1,286046992.1,Y
1570032056.0,286046992.1,P
1570032075.8,286046995.7,N
1570032095.6,286046996.5,N
1570032115.5,286047001.0,N
1570032135.3,286046998.6,N
1570032155.2,286046998.9,N
1570032175.9,286046998.4,N
1570032195.7,286047001.1,N
1570032215.6,286047000.2,N
1570032235.4,286047002.6,N
1570032255.2,286047002.6,N
1570032275.1,286046999.7,N
1570032276.0,286046999.7,N
1570032295.8,286047000.9,N
1570032315.7,286046998.2,N
1570032335.5,286046998.6,N
1570032355.3,286047000.1,N
1570032375.2,286046999.8,N
1570032395.0,286047000.2,N
1570032395.9,286047000.2,N
1570032415.8,286047000.7,N
1570032435.6,286046998.9,N
1570032455.4,286047001.1,N
1570032475.3,286046998.5,N
1570032495.1,286046996.6,N
1570032515.8,286046999.2,N
1570032535.7,286047000.8,N
1570032555.5,286046999.8,N
1570032575.4,286047000.4,N
1570032595.2,286047002.1,N
1570032615.0,286047002.1,N
1570032615.9,286047002.1,N
1570032635.8,286047002.4,N
1570032655.6,286047000.2,N
1570032675.5,286047000.0,N
1570032695.3,286047001.8,N
1570032715.1,286047003.6,N
1570032735.9,286047003.5,N
1570032755.7,286047001.4,N
1570032775.6,286047002.2,N
1570032795.4,286047002.0,N
1570032815.2,286047001.6,N
1570032835.1,286047000.3,N
1570032836.0,286047000.3,N
1570032855.8,286047000.9,N
1570032875.7,286047001.0,N
1570032895.5,286046999.9,N
1570032915.3,286047000.7,N
1570032935.2,286047000.5,N
1570032955.0,286047002.5,N
1570032955.9,286047002.5,N
1570032975.7,286047002.2,N
1570032995.6,286047000.4,N
1570033015.4,286047001.0,N
1570033035.3,286047000.6,N
1570033055.1,286047002.7,N
1570033075.8,286047001.9,N
1570033095.7,286047003.8,Y
1570033115.5,286047002.1,P
1570033135.4,286047001.3,P
1570033155.2,286047003.9,P
1570033175.0,286047003.6,Y
1570033175.9,286047003.6,P
1570033195.8,286046999.2,N
1570033215.6,286046998.3,N
1570033235.5,286046998.9,N
1570033255.3,286046998.5,N
1570033275.1,286047000.2,N
1570033295.9,286047001.2,N
1570033315.7,286046999.2,N
1570033335.5,286047001.2,N
1570033355.4,286047000.7,N
1570033375.2,286046999.9,N
1570033395.1,286047000.0,N
1570033396.0,286047000.0,N
1570033415.8,286047000.5,N
1570033435.6,286047000.4,N
1570033455.5,286047000.1,N
1570033475.3,286046999.7,N
1570033495.1,286047001.1,N
1570033515.9,286047000.7,N
1570033535.7,286046999.3,N
1570033555.6,286047000.5,N
1570033575.4,286047000.8,N
1570033595.2,286047001.1,N
1570033615.1,286047001.0,N
1570033616.0,286047001.0,N
1570033635.8,286047002.0,N
1570033655.7,286047002.5,N
1570033675.5,286047002.2,N
1570033695.3,286047002.8,N
1570033715.2,286047001.0,N
1570033735.0,286047001.0,N
1570033735.9,286047001.0,N
1570033755.7,286046999.0,N
1570033775.6,286047000.6,N
1570033795.4,286047000.7,N
1570033815.3,286046998.1,N
1570033835.1,286046999.8,N
1570033836.0,286046999.8,N
1570033855.8,286047000.3,N
1570033875.7,286047002.7,N
1570033895.5,286046998.2,N
1570033915.3,286046999.0,N
1570033935.2,286047001.1,N
1570033955.0,286047000.3,N
1570033975.5,286046998.9,N
1570033995.4,286047000.7,N
1570034015.2,286046999.6,N
1570034035.1,286046997.4,N
1570034036.0,286046997.4,N
1570034055.8,286046997.9,N
1570034075.6,286046996.4,N
1570034095.5,286046996.4,N
1570034115.3,286046995.1,N
1570034135.2,286046997.3,N
1570034155.9,286046997.1,N
1570034175.7,286046997.1,N
1570034195.6,286046996.6,N
1570034215.4,286046999.5,N
1570034235.2,286046996.7,N
1570034255.1,286046996.9,N
1570034256.0,286046996.9,N
1570034275.8,286046998.8,N
1570034295.7,286046998.3,N
1570034315.5,286046998.4,N
1570034335.3,286047000.0,N
1570034355.2,286047000.7,N
1570034375.0,286046998.4,N
1570034375.9,286046998.4,N
1570034395.8,286046998.8,N
1570034415.6,286046998.2,N
1570034435.4,286046999.0,N
1570034455.3,286046999.3,N
1570034475.1,286046999.4,N
1570034495.8,286046999.0,N
1570034515.7,286046999.3,N
1570034535.5,286046999.2,N
1570034555.4,286046999.1,N
1570034575.2,286046999.2,N
1570034595.0,286046999.0,N
1570034595.9,286046999.0,N
1570034615.8,286046998.2,N
1570034635.6,286047001.1,N
1570034655.5,286046998.2,N
1570034675.3,286046999.1,N
1570034695.1,286046999.1,N
1570034715.9,286046996.6,Y
1570034735.7,286046998.9,P
1570034755.6,286046998.9,P
1570034775.4,286046998.2,P
1570034795.2,286046998.1,Y
1570034815.1,286047000.0,P
1570034816.0,286047000.0,N
1570034835.8,286047000.1,N
1570034855.6,286047001.6,N
1570034875.5,286047002.3,N
1570034895.3,286047002.5,N
1570034915.2,286046999.8,N
1570034935.9,286047001.6,N
1570034955.7,286047002.2,N
1570034975.6,286047001.8,N
1570034995.4,286047001.6,N
1570035015.3,286047001.9,N
1570035035.1,286047003.7,Y
1570035055.8,286047004.2,P
1570035075.7,286047005.9,P
1570035095.5,286047005.8,N
1570035115.4,286047003.4,N
1570035135.2,286047004.0,N
1570035155.0,286047002.6,N
1570035155.9,286047002.6,N
1570035175.8,286047001.5,N
1570035195.6,286047003.6,N
1570035215.5,286047005.9,Y
1570035235.3,286047000.2,P
1570035255.1,286047000.0,N
1570035275.9,286046999.8,N
1570035295.7,286047000.0,N
1570035315.6,286047000.5,N
1570035335.4,286047002.8,N
1570035355.2,286047004.3,Y
1570035375.1,286047001.6,P
1570035376.0,286047001.6,P
1570035395.8,286047001.8,P
1570035415.7,286047001.3,Y
1570035435.5,286047002.1,P
1570035455.3,286047002.6,P
1570035475.2,286047002.6,P
1570035495.9,286047000.3,N
1570035515.7,286047000.0,N
1570035535.6,286046999.9,N
1570035555.4,286047001.7,N
1570035575.3,286047002.8,N
1570035595.1,286046998.1,N
1570035596.0,286046998.1,N
